"Pseudo-MPEC" for P1180x2

Created 2020 Oct 19 5:07:37 UT using Find_Orb

Click here for an explanation of pseudo-MPECs

 
 Astrometry: 
     P1180x2  C2020 09 17aKd.e`TE*@\5@t,'9Rt\RvwaP)eK1p2\5uHu)mZ#*IC$U$=aRy9OF51
     P1180x2  C2020 09 17Uk6,NU1_%DA:sCjkJYOs#SAstrometry([pC4I\redacted;c$'SF51
     P1180x2  C2020 09 17dU.v:click3t6(m3rIXB(-o_`wA0@UYVr8^Km3R.Lx(sehereTvDF51
     P1180x2  C2020 10 14.29637 03 10 27.43 +16 58 38.5    ~AGLM 22.1 GVNEOCPG96
     P1180x2  C2020 10 14.30149 03 10 28.02 +16 58 29.7    ~AGLM 22.6 GVNEOCPG96
     P1180x2  C2020 10 14.30662 03 10 28.44 +16 58 22.3    ~AGLM 22.6 GVNEOCPG96
     P1180x2  C2020 10 15PY+Elv9VpHj'@(eE^227@3=ro7^$g\TFg?3P2jG[ZNUm!%3k/LJdF51
     P1180x2  C2020 10 15NgF(h4\a!gsk4T%0uforcePBRAvS*##^g+L43nJUW7(#%7(u!X8fF51
     P1180x2  C2020 10 15.ZO1K44NrU3xi!lEK!#^ZAubpvt.(B42S`FAhw=@#c@(?wD#W?RsF51
     P1180x2  C2020 10 165(nwDv?X.srT:aMk=D2@aROF],?5%.=s+;JJN2wFglan]$lIxS!4F51
     P1180x2  C2020 10 16*q6sap'XCfNG7Zh!4doLBauAnQu([vTLoovQM?=Ug.W!w41RK]tfF51
     P1180x2  C2020 10 163oZdk=EAqqjfmAmg_I.mZ/Dne06GOZD\xiSDdJoUj=P^^iaF7u/[F51
     P1180x2  C2020 10 17DtED0Gsf[rZ;VX'5KD?c\/J(FEk[ie'hO(a;c3rwONU/.]DY[cBrF51
     P1180x2  C2020 10 17LFTrFFT515#;=?0ZR(X[Vgj?$hx:,u2XAfQAf_1xt4mk-#%:`7upF51
     P1180x2  C2020 10 17%f5]Thw`c/?^PJ/7n]explanation%a(g?-'%yu$BeawS_7pH0TRF51

Station data:
(F51) Pan-STARRS 1, Haleakala  (N20.707235 W156.255910)  US/Hawaii.
   Observers N. Primak, A. Schultz, S. Watters, J. Thiel, T. Goggia. Measurer
   PS1 Science Consortium. 1.8-m Ritchey-Chrétien + CCD.
(G96) Mt. Lemmon Survey  (N32.442754 W110.788720)  US/Arizona.  Observers T.
   A. Pruyne, B. M. Africano, E. J. Christensen, G. A. Farneth, D. C. Fuls,
   A. R. Gibbs, A. D. Grauer, H. Gröller, J. A. Johnson, R. A. Kowalski, S.
   M. Larson, G. J. Leonard, D. Rankin, R. L. Seaman, F. C. Shelly. 1.5-m
   reflector + 10K CCD.

Orbital elements:  P1180x2
   Perihelion 2020 Sep 24.293330 +/- 0.00532 TT =  7:02:23 (JD 2459116.793330)
Epoch 2020 Oct 17.0 TT = JDT 2459139.5   Earth MOID: 0.1891   AutoNEOCP
M   6.24496010 +/- 0.007            (J2000 ecliptic)
n   0.27502756 +/- 0.000385         Peri.  162.89611 +/- 0.0045
a   2.34181132 +/- 0.00218          Node   205.14378 +/- 0.0029
e   0.4931506 +/- 0.000419          Incl.    6.36071 +/- 0.0036
P   3.58                   H 24.1   G  0.15   U  7.5  
q 1.18694564 +/- 0.000125    Q 3.49667699 +/- 0.00425
From 15 observations 2020 Sept. 17-Oct. 17; mean residual 0".29
Residuals in arcseconds: 
200917 F51  .08+  .05-    201014 G96  .23-  .42-    201016 F51  .04+  .02-    
200917 F51  .00   .14+    201015 F51  .15+  .03+    201016 F51  .14-  .01-    
200917 F51  .08-  .10-    201015 F51  .02+  .11+    201017 F51  .12-  .04-    
201014 G96  .67-  .84+    201015 F51  .15+  .13+    201017 F51  .01-  .23+    
201014 G96  .77+  .50-    201016 F51  .07+  .13-    201017 F51  .01+  .21-    

Ephemerides (geocentric):
Date (UTC) HH   RA              Dec         delta   r     elong  mag " sig PA
---- -- -- --  -------------   -----------  ------ ------ -----  --- ---- ---
2020 10 19 05  03 18 12.897   +14 58 09.82  .24117 1.2184 154.7 22.5 .470  35
2020 10 19 06  03 18 16.324   +14 57 09.29  .24125 1.2185 154.7 22.5 .476  35
2020 10 19 07  03 18 19.742   +14 56 08.79  .24132 1.2186 154.7 22.5 .483  35
2020 10 19 08  03 18 23.152   +14 55 08.31  .24140 1.2187 154.8 22.5 .489  35
2020 10 19 09  03 18 26.554   +14 54 07.86  .24147 1.2188 154.8 22.5 .496  35
2020 10 19 10  03 18 29.947   +14 53 07.43  .24155 1.2189 154.8 22.5 .502  35
2020 10 19 11  03 18 33.331   +14 52 07.02  .24163 1.2190 154.9 22.5 .509  36
2020 10 19 12  03 18 36.707   +14 51 06.64  .24170 1.2191 154.9 22.5 .515  36
2020 10 19 13  03 18 40.075   +14 50 06.28  .24178 1.2192 154.9 22.5 .522  36
2020 10 19 14  03 18 43.434   +14 49 05.94  .24186 1.2193 155.0 22.5 .529  36
2020 10 19 15  03 18 46.784   +14 48 05.63  .24193 1.2194 155.0 22.5 .535  36
2020 10 19 16  03 18 50.127   +14 47 05.34  .24201 1.2195 155.0 22.5 .542  36
2020 10 19 17  03 18 53.460   +14 46 05.08  .24209 1.2196 155.0 22.5 .548  36
2020 10 19 18  03 18 56.786   +14 45 04.84  .24217 1.2197 155.1 22.5 .555  36
2020 10 19 19  03 19 00.103   +14 44 04.63  .24225 1.2198 155.1 22.5 .562  36
2020 10 19 20  03 19 03.411   +14 43 04.44  .24232 1.2199 155.1 22.5 .568  36
2020 10 19 21  03 19 06.712   +14 42 04.28  .24240 1.2201 155.2 22.5 .575  36
2020 10 19 22  03 19 10.004   +14 41 04.14  .24248 1.2202 155.2 22.5 .581  36
2020 10 19 23  03 19 13.287   +14 40 04.03  .24256 1.2203 155.2 22.5 .588  36
2020 10 20 00  03 19 16.562   +14 39 03.95  .24264 1.2204 155.3 22.5 .595  36
2020 10 20 01  03 19 19.829   +14 38 03.89  .24272 1.2205 155.3 22.5 .601  36
2020 10 20 02  03 19 23.088   +14 37 03.86  .24280 1.2206 155.3 22.5 .608  36
2020 10 20 03  03 19 26.338   +14 36 03.85  .24288 1.2207 155.3 22.5 .615  36
2020 10 20 04  03 19 29.580   +14 35 03.87  .24296 1.2208 155.4 22.5 .621  36
2020 10 20 05  03 19 32.814   +14 34 03.92  .24304 1.2209 155.4 22.5 .628  36
2020 10 20 06  03 19 36.039   +14 33 03.99  .24312 1.2210 155.4 22.5 .635  36
2020 10 20 07  03 19 39.256   +14 32 04.10  .24320 1.2211 155.5 22.5 .642  36
2020 10 20 08  03 19 42.465   +14 31 04.22  .24328 1.2212 155.5 22.5 .648  36
2020 10 20 09  03 19 45.666   +14 30 04.38  .24336 1.2213 155.5 22.5 .655  37
2020 10 20 10  03 19 48.858   +14 29 04.57  .24344 1.2214 155.6 22.5 .662  37
2020 10 20 11  03 19 52.042   +14 28 04.78  .24352 1.2215 155.6 22.5 .669  37
2020 10 20 12  03 19 55.218   +14 27 05.02  .24360 1.2217 155.6 22.5 .675  37
2020 10 20 13  03 19 58.386   +14 26 05.29  .24368 1.2218 155.6 22.5 .682  37
2020 10 20 14  03 20 01.546   +14 25 05.59  .24376 1.2219 155.7 22.5 .689  37
2020 10 20 15  03 20 04.697   +14 24 05.91  .24385 1.2220 155.7 22.5 .696  37
2020 10 20 16  03 20 07.841   +14 23 06.27  .24393 1.2221 155.7 22.5 .703  37
2020 10 20 17  03 20 10.976   +14 22 06.65  .24401 1.2222 155.8 22.5 .709  37
2020 10 20 18  03 20 14.103   +14 21 07.07  .24409 1.2223 155.8 22.5 .716  37
2020 10 20 19  03 20 17.221   +14 20 07.51  .24417 1.2224 155.8 22.5 .723  37
2020 10 20 20  03 20 20.332   +14 19 07.98  .24426 1.2225 155.9 22.5 .730  37
2020 10 20 21  03 20 23.435   +14 18 08.48  .24434 1.2226 155.9 22.5 .737  37
2020 10 20 22  03 20 26.529   +14 17 09.01  .24442 1.2227 155.9 22.5 .744  37
2020 10 20 23  03 20 29.616   +14 16 09.58  .24451 1.2228 155.9 22.5 .750  37
2020 10 21 00  03 20 32.694   +14 15 10.17  .24459 1.2230 156.0 22.5 .757  37
2020 10 21 01  03 20 35.764   +14 14 10.79  .24467 1.2231 156.0 22.5 .764  37
2020 10 21 02  03 20 38.827   +14 13 11.44  .24476 1.2232 156.0 22.5 .771  37
2020 10 21 03  03 20 41.881   +14 12 12.13  .24484 1.2233 156.1 22.5 .778  37
2020 10 21 04  03 20 44.927   +14 11 12.84  .24492 1.2234 156.1 22.5 .785  37